ロヴァシュ第1彗星

93P/Lovas 1 (1998)

English version
Home page
Updated on June 28, 2000

---------------------------------------------------------------------

・ プロフィール

・ 写真集

・ 軌道要素

   The following improved orbital elements by Kenji Muraoka, 
  are from 117 observations 1980 to 1998, including 9 Planets, 
  Moon and 5 minor planets perturbations and non-gravitational 
  effect of style II.  The mean residual is +/- 0.70 arc seconds.

      Epoch  =  1998 Nov.  3.0  TT       JDT = 2451120.5
          T  =  1998 Oct. 14.14962       +/- 0.00182 (m.e.) TT
       Peri. =   74.49216                +/- 0.00074
       Node  =  340.01962                +/- 0.00011   (2000.0)
       Incl. =   12.23659                +/- 0.00002
          q  =    1.6917872              +/- 0.0000012 AU
          e  =    0.6131189              +/- 0.0000010
          a  =    4.3728868              +/- 0.0000027 AU
          n  =    0.10778336             +/- 0.00000010
          P  =    9.144                  +/- 0.0000084  years
         A1  =   +0.396                  +/- 0.117
         A2  =   -0.00349                +/- 0.00041

・ 星図

・ 光度変化

        m1 =  6.5 + 5 logΔ + 30.0 log r  [ ,0]  (              〜1998年10月14日)
        m1 = 10.0 + 5 logΔ + 15.0 log r  [0, ]  (1998年10月14日〜              )

---------------------------------------------------------------------

軌道要素は村岡健治氏の計算によるものです。
星図は StellaNavigator Ver.2.0 for Windows (アストロアーツ 編著 / アスキー出版局刊) で作成したものです。
光度グラフはComet for Windowsで作成したものです。

---------------------------------------------------------------------

Copyright(C) Seiichi Yoshida (comet@aerith.net). All rights reserved.